Retour au catalogue

NOAA 16 DEB

ActifSSO
NORAD 41143·DEBRIS·🇺🇸 United States

Lancé Sep 21, 2000 depuis Vandenberg Space Force Base

Loading…

Prochains Passages (prochaines 24 heures)

TLE

FraisSource: Space-Track

Époque: Sep 13, 2026, 04:05 UTC

1 41143U 00055CA  26256.17044706  .00001885  00000-0  11123-2 0  9995
2 41143  98.8860 219.6434 0083113 241.8322 117.4433 14.07359054549336

Suivez NOAA 16 DEB en temps réel avec AllMySat

Download on the App Store